This demonstration page uses our WeatherBlox Daily Observations layout. Learn more.

Left ArrowRight Arrow

Hourly Observations for November 20, 2020

Temp ( °F °C ) Dew Point ( °F °C ) Humidity (%) Winds ( mph kmh ) Pressure ( in mb ) Visibility ( mi km ) Precip ( " mm )
12:56 am 00:56 Clear 46 7.8 34 1.1 63 63 NNW 10 17 30.19 1022 10 16 0.00 0.00
1:56 am 01:56 Clear 41 5 32 0 70 70 NW 7 11 30.22 1023 10 16 0.00 0.00
2:56 am 02:56 Clear 40 4.4 32 0 73 73 NW 7 11 30.25 1024 10 16 0.00 0.00
3:56 am 03:56 Clear 36 2.2 31 -0.6 82 82 NW 8 13 30.27 1025 10 16 0.00 0.00
4:56 am 04:56 Clear 33 0.6 29 -1.7 85 85 NW 7 11 30.31 1026 10 16 0.00 0.00
5:56 am 05:56 Clear 34 1.1 29 -1.7 82 82 NW 8 13 30.35 1028 10 16 0.00 0.00
6:56 am 06:56 Clear 35 1.7 31 -0.6 85 85 NW 6 9 30.37 1028 10 16 0.00 0.00
7:56 am 07:56 Partly Cloudy 36 2.2 31 -0.6 82 82 NW 8 13 30.40 1029 10 16 0.00 0.00
8:56 am 08:56 Mostly Cloudy 39 3.9 33 0.6 79 79 NW 7 11 30.45 1031 10 16 0.00 0.00
9:56 am 09:56 Mostly Cloudy 43 6.1 35 1.7 74 74 NNW 5 7 30.46 1032 10 16 0.00 0.00
10:56 am 10:56 Mostly Sunny 47 8.3 34 1.1 61 61 N 7 11 30.46 1031 10 16 0.00 0.00
11:56 am 11:56 Sunny 51 10.6 32 0 48 48 NE 8 13 30.45 1031 10 16 0.00 0.00
12:56 pm 12:56 Sunny 54 12.2 30 -1.1 40 40 ENE 10 17 30.42 1030 10 16 0.00 0.00
1:56 pm 13:56 Sunny 55 12.8 29 -1.7 37 37 VRB 6 9 30.42 1030 10 16 0.00 0.00
2:56 pm 14:56 Sunny 55 12.8 27 -2.8 34 34 ENE 7 11 30.42 1030 10 16 0.00 0.00
3:56 pm 15:56 Sunny 54 12.2 26 -3.3 34 34 ENE 8 13 30.44 1031 10 16 0.00 0.00
4:56 pm 16:56 Sunny 49 9.4 27 -2.8 43 43 ENE 7 11 30.46 1032 10 16 0.00 0.00
5:56 pm 17:56 Clear 43 6.1 25 -3.9 49 49 ENE 7 11 30.48 1032 10 16 0.00 0.00
6:56 pm 18:56 Clear 42 5.6 25 -3.9 51 51 ENE 5 7 30.49 1033 10 16 0.00 0.00
7:56 pm 19:56 Clear 39 3.9 25 -3.9 57 57 ENE 6 9 30.51 1033 10 16 0.00 0.00
8:56 pm 20:56 Clear 38 3.3 26 -3.3 62 62 E 7 11 30.52 1033 10 16 0.00 0.00
9:56 pm 21:56 Mostly Clear 39 3.9 26 -3.3 60 60 NE 3 6 30.53 1034 10 16 0.00 0.00
10:56 pm 22:56 Mostly Clear 41 5 26 -3.3 55 55 Calm 30.52 1034 10 16 0.00 0.00
11:56 pm 23:56 Mostly Cloudy 39 3.9 27 -2.8 62 62 N 6 9 30.53 1034 10 16 0.00 0.00

Powered by AerisWeather